sat.trackr.live / text

‹ back to catalog

STARLINK-37213

NORAD 68686 · 2026-077AA

PAYLOAD ACTIVE UNKNOWN

§ Identity

Operator
Country
US
Launch date
2026-04-11
Launch site
AFWTR
Launch vehicle
Mass (kg)
RCS (m²)

Purposes: comms

External: N2YO · Heavens-Above · Gunter

§ Orbital elements

Epoch: 2026-05-25T02:34:11.985024Z

Period
93.90 min
Inclination
97.2860°
Eccentricity
0.0000737
Mean motion
15.33472823 rev/d
Perigee alt
465.0 km
Apogee alt
466.0 km
Semi-major
6,843.6 km
B*
3.3439e-4
RAAN
16.7484°
Arg perigee
160.3244°
Mean anomaly
199.8027°
Rev number
687

§ Raw data

STARLINK-372131 68686U 26077AA  26145.10708316  .00010745  00000+0  33439-3 0  99912 68686  97.2860  16.7484 0000737 160.3244 199.8027 15.33472823  6870

JSON: /api/v1/satellites/68686 · /tle

For live sub-satellite position, see the globe view (requires WebGL).

§ Visibility from observer

Set your observer location to see the next 7 days of passes ≥ 10°. The values pass through the URL so the page stays shareable.

No JS? Fill the form by hand. The geolocation button needs JavaScript.